一网星座-0375星 (ONEWEB-0375 )

导读

ONEWEB-0375是英国OneWeb星座项目中的一颗低轨通信卫星,于北京时间2021年10月14日,由俄罗斯联盟号火箭在东方航天发射场发射入轨,属于OneWeb大规模低轨宽带星座组网任务的组成部分,它同批次发射共36颗卫星,最终运行在约1200公里的近地轨道,服务全球高速卫星互联网组网,支持全球广覆盖低延迟宽带通信服务,也具备潜在的军事应用价值。

Basic Information
目录编号:
49301
目录名称:
ONEWEB-0375
国际标识:
2021-090Y
轨道中心:
EARTH
卫星名称:
一网星座-0375星
卫星全名:
一网星座-0375星 (ONEWEB-0375 )
卫星状态:
在轨 (已飞行1794 天)
发射日期:
2021-10-14 UTC
国别 :
英国 (GB)
星等 :
--
This satellite is enrolled in the Space Conjunction Data Service (SCDS) and the current flight risk assessment level is: No High Risk
Orbit Information
数据来源 国际轨道数据 AOE轨道数据
星历时间 2026-09-11T19:06:23+0800
18小时前
查看轨道信息
2026-09-07T02:00:00+0800
5天前
查看轨道信息
半长轴 7559.906km 7559.901km
偏心率 0.0002258 0.0001886
轨道倾角 87.913° 87.911°
近地点辐角 103.376° 116.010°
升交点赤经 257.224° 258.164°
平近点角 256.763° 168.827°
近地点 1180.061km 1180.338km
远地点 1183.477km 1183.19km
周期 109.027分钟 109.027分钟
每日圈数 13.207732 13.207745
Detailed Information
平衡模式:
三轴稳定
覆盖范围:
全球
运营商:
一网卫星公司
运营商所在国:
英国
制造商(研发单位):
一网卫星公司
制造商所在国:
英国
使用方式:
暂无
Satellite Introduction
OneWeb卫星网络由648颗重约125公斤的微型卫星组成,运行在1200公里的轨道上。 每颗卫星都能够提供至少每秒8千兆位的吞吐量,以使用其高吞吐量的Ku频段有效载荷为家庭和移动平台提供互联网接入。该卫星仍在工作。
2D Orbit Map
3D Orbit Map
Orbit Altitude Analysis Chart
Orbit Inclination Analysis Chart
Orbit Comprehensive Analysis Chart
View Comprehensive Chart
Miss Distance Evolution Trend with All Objects
Collision Probability Evolution Trend with All Objects